Satellite-Ground Cal/Val Site Overpasses Predictions

Prediction of Satellite NPP Overpassing Cal/Val Site: Antarctic Dome C

Ground Cal/Val Site Location: Latitude: -75.10, Longitude: 123.35; Satellite-Ground Site NADIR distance within 100 km.

Table of predicted overpasses for the next 14.0 days since TLE Epoch: 7/1/2013
Interval Starting Time Ending Time Minimum Distance Time Minimum Distance (km)
1 07/02/2013 15:00:50 07/02/2013 15:01:13 07/02/2013 15:01:01 60.62
2 07/03/2013 14:41:58 07/03/2013 14:42:24 07/03/2013 14:42:11 48.59
3 07/04/2013 07:43:39 07/04/2013 07:44:00 07/04/2013 07:43:50 68.88
4 07/05/2013 07:24:46 07/05/2013 07:25:13 07/05/2013 07:25:00 39.23
5 07/07/2013 15:07:13 07/07/2013 15:07:18 07/07/2013 15:07:16 97.96
6 07/08/2013 14:48:11 07/08/2013 14:48:41 07/08/2013 14:48:26 13.31
7 07/10/2013 07:31:00 07/10/2013 07:31:29 07/10/2013 07:31:15 3.09
8 07/13/2013 14:54:26 07/13/2013 14:54:54 07/13/2013 14:54:40 22.65
9 07/14/2013 14:35:43 07/14/2013 14:35:59 07/14/2013 14:35:51 84.34


NCC Satellite Cal/Val Overpasses Prediction Service
